Newton, KS

9:21 PM CST on December 15, 2019 (GMT -0600)
Newton City County

Weather History for KEWK - October, 2019

Change the Weather History Date:

Saturday, October 19, 2019

  Actual Average Record
Temperature  
Mean Temperature 60 °F -  
Max Temperature 69 °F 64 °F 84 °F (2003)
Min Temperature 48 °F 43 °F 15 °F (2013)
Degree Days  
Heating Degree Days 6    
Growing Degree Days 10 (Base 50)    
Moisture  
Dew Point 43 °F    
Average Humidity 63    
Maximum Humidity 94    
Minimum Humidity 30    
Precipitation  
Precipitation 0.01 in - - ()
Sea Level Pressure  
Sea Level Pressure 29.76 in    
Wind  
Wind Speed 12 mph (North)    
Max Wind Speed 17 mph    
Max Gust Speed 24 mph    
Visibility 10 miles    
Events Rain , Thunderstorm    
Averages and records for this station are not official NWS values.
T = Trace of Precipitation, MM = Missing Value Source: NWS Daily Summary

Daily Weather History Graph

Daily Weather History Graph

Search for Another Location

Airport or City:

Astronomy

Oct. 19, 2019 Rise Set
Actual Time 7:41 AM CDT 6:46 PM CDT
Civil Twilight 7:14 AM CDT 7:12 PM CDT
Nautical Twilight 6:44 AM CDT 7:43 PM CDT
Astronomical Twilight 6:13 AM CDT 8:13 PM CDT
Moon 11:00 PM CDT (10/19) 1:11 PM CDT (10/19)
Length of Visible Light 11h 58m
Length of Day
11h 04m
Waning Gibbous, 69% of the Moon is Illuminated
Oct 19
Waning Gibbous
Oct 21
Last Quarter
Oct 27
New
Nov 4
First Quarter
Nov 12
Full

Hourly Weather History & Observations

Time (CDT) Temp. Dew Point Humidity Pressure Visibility Wind Dir Wind Speed Gust Speed Precip Events Conditions
12:09 AM 60.8 °F 42.8 °F 52% 29.71 in 10.0 mi SSW 15.0 mph - N/A Thunderstorm Mostly Cloudy
12:37 AM 57.2 °F 46.4 °F 67% 29.68 in 10.0 mi SSW 17.3 mph - 0.00 in Rain Light Rain
12:56 AM 57.0 °F 48.0 °F 72% 29.64 in 10.0 mi South 13.8 mph - 0.01 in Rain Light Rain
1:56 AM 57.0 °F 46.9 °F 69% 29.64 in 10.0 mi South 15.0 mph - 0.00 in   Overcast
2:38 AM 57.2 °F 46.4 °F 67% 29.69 in 10.0 mi South 11.5 mph - 0.00 in Rain , Thunderstorm Light Rain
2:51 AM 55.4 °F 48.2 °F 77% 29.69 in 10.0 mi South 9.2 mph - 0.00 in Thunderstorm Mostly Cloudy
2:56 AM 55.9 °F 48.0 °F 75% 29.66 in 10.0 mi SSW 11.5 mph - 0.00 in Thunderstorm Overcast
3:12 AM 55.4 °F 48.2 °F 77% 29.70 in 10.0 mi South 10.4 mph - N/A   Overcast
3:56 AM 54.0 °F 50.0 °F 86% 29.67 in 10.0 mi SSW 6.9 mph - N/A   Overcast
4:56 AM 54.0 °F 50.0 °F 86% 29.68 in 10.0 mi SSE 5.8 mph - N/A   Overcast
5:56 AM 50.0 °F 48.0 °F 93% 29.71 in 10.0 mi SSW 3.5 mph - N/A   Clear
6:56 AM 50.0 °F 46.9 °F 89% 29.73 in 10.0 mi NNW 12.7 mph - N/A   Clear
7:27 AM 50.0 °F 48.2 °F 94% 29.77 in 10.0 mi NNW 13.8 mph - N/A   Mostly Cloudy
7:56 AM 51.1 °F 48.9 °F 92% 29.76 in 10.0 mi NNW 17.3 mph - N/A   Overcast
8:29 AM 50.0 °F 48.2 °F 94% 29.79 in 10.0 mi NNW 17.3 mph 21.9 mph N/A   Scattered Clouds
9:56 AM 54.0 °F 48.0 °F 80% 29.81 in 10.0 mi North 16.1 mph 24.2 mph N/A   Clear
10:56 AM 57.9 °F 46.9 °F 67% 29.82 in 10.0 mi North 15.0 mph - N/A   Clear
11:56 AM 62.1 °F 46.0 °F 56% 29.83 in 10.0 mi NNW 13.8 mph - N/A   Clear
12:56 PM 64.9 °F 46.0 °F 50% 29.82 in 10.0 mi North 15.0 mph - N/A   Clear
1:56 PM 66.9 °F 42.1 °F 40% 29.80 in 10.0 mi NNW 12.7 mph - N/A   Clear
2:56 PM 68.0 °F 39.9 °F 36% 29.79 in 10.0 mi NNW 13.8 mph 21.9 mph N/A   Clear
3:56 PM 69.1 °F 36.0 °F 30% 29.78 in 10.0 mi North 10.4 mph 19.6 mph N/A   Clear
4:56 PM 68.0 °F 36.0 °F 31% 29.78 in 10.0 mi North 9.2 mph - N/A   Clear
5:56 PM 64.9 °F 35.1 °F 33% 29.79 in 10.0 mi North 8.1 mph - N/A   Clear
6:56 PM 62.1 °F 35.1 °F 37% 29.81 in 10.0 mi NNE 4.6 mph - N/A   Clear
7:56 PM 59.0 °F 34.0 °F 39% 29.81 in 10.0 mi NNE 4.6 mph - N/A   Clear
8:56 PM 57.9 °F 35.1 °F 42% 29.82 in 10.0 mi ENE 5.8 mph - N/A   Clear
9:56 PM 57.9 °F 35.1 °F 42% 29.84 in 3.0 mi East 4.6 mph - N/A   Haze
10:56 PM 52.0 °F 36.0 °F 54% 29.83 in 10.0 mi ESE 5.8 mph - N/A   Clear
11:56 PM 48.0 °F 37.0 °F 66% 29.83 in 10.0 mi SE 8.1 mph - N/A   Clear